Suffolk, VA

9:14 PM EST on February 06, 2016 (GMT -0500)
Suffolk Municipal

Weather History for KSFQ - January, 2014

Change the Weather History Date:

Wednesday, January 22, 2014

  Actual Average Record
Temperature  
Mean Temperature 20 °F -  
Max Temperature 24 °F 47 °F 73 °F (1999)
Min Temperature 15 °F 28 °F 7 °F (1970)
Degree Days  
Heating Degree Days 46    
Moisture  
Dew Point 9 °F    
Average Humidity 69    
Maximum Humidity 93    
Minimum Humidity 45    
Precipitation  
Precipitation 0.01 in - - ()
Sea Level Pressure  
Sea Level Pressure 29.92 in    
Wind  
Wind Speed 12 mph (NW)    
Max Wind Speed 16 mph    
Max Gust Speed 28 mph    
Visibility 7 miles    
Events Snow    
Averages and records for this station are not official NWS values.
T = Trace of Precipitation, MM = Missing Value Source: NWS Daily Summary

Daily Weather History Graph

Daily Weather History Graph

Search for Another Location

Airport or City:

Trip Planner

Search our weather history database for the weather conditions in past years. The results will help you decide how hot, cold, wet, or windy it might be!

Date:

Astronomy

Jan. 22, 2014 Rise Set
Actual Time 7:15 AM EST 5:21 PM EST
Civil Twilight 6:47 AM EST 5:49 PM EST
Nautical Twilight 6:15 AM EST 6:20 PM EST
Astronomical Twilight 5:44 AM EST 6:51 PM EST
Moon 11:40 PM EST (1/22) 10:25 AM EST (1/22)
Length of Visible Light 11h 01m
Length of Day
10h 06m
Waning Gibbous, 65% of the Moon is Illuminated
Jan 22
Waning Gibbous
Jan 24
Last Quarter
Jan 30
New
Feb 6
First Quarter
Feb 14
Full

Hourly Weather History & Observations

Time (EST) Temp. Windchill Dew Point Humidity Pressure Visibility Wind Dir Wind Speed Gust Speed Precip Events Conditions
12:15 AM 24.8 °F 12.9 °F 21.2 °F 86% 29.76 in 1.2 mi NW 13.8 mph 23.0 mph N/A Snow Light Snow
12:35 AM 23.0 °F 11.7 °F 21.2 °F 93% 29.76 in 1.2 mi NNW 11.5 mph 26.5 mph 0.01 in Snow Light Snow
12:55 AM 23.0 °F 10.6 °F 21.2 °F 93% 29.77 in 1.0 mi NNW 13.8 mph 20.7 mph 0.01 in Snow Snow
1:15 AM 21.2 °F 10.1 °F 19.4 °F 93% 29.79 in 1.5 mi NW 10.4 mph 18.4 mph N/A Snow Light Snow
1:35 AM 21.2 °F 10.1 °F 19.4 °F 93% 29.80 in 1.2 mi NNW 10.4 mph 20.7 mph N/A Snow Snow
1:55 AM 21.2 °F 8.3 °F 19.4 °F 93% 29.80 in 1.5 mi NNW 13.8 mph 25.3 mph N/A Snow Light Snow
2:15 AM 21.2 °F 11.7 °F 19.4 °F 93% 29.81 in 1.5 mi NNW 8.1 mph 17.3 mph N/A Snow Light Snow
2:35 AM 21.2 °F 8.9 °F 17.6 °F 86% 29.82 in 2.0 mi NNW 12.7 mph 23.0 mph N/A Snow Light Snow
2:55 AM 19.4 °F 6.0 °F 17.6 °F 93% 29.82 in 3.0 mi NW 13.8 mph 24.2 mph N/A Snow Light Snow
3:15 AM 19.4 °F 6.0 °F 15.8 °F 86% 29.83 in 4.0 mi NW 13.8 mph 20.7 mph N/A Snow Light Snow
3:35 AM 19.4 °F 7.9 °F 15.8 °F 86% 29.84 in 10.0 mi NNW 10.4 mph 23.0 mph N/A   Mostly Cloudy
3:55 AM 19.4 °F 7.2 °F 12.2 °F 74% 29.84 in 10.0 mi NNW 11.5 mph 18.4 mph N/A   Mostly Cloudy
4:15 AM 19.4 °F 8.6 °F 12.2 °F 74% 29.84 in 10.0 mi NW 9.2 mph 21.9 mph N/A   Overcast
4:55 AM 17.6 °F 3.7 °F 8.6 °F 68% 29.84 in 10.0 mi NW 13.8 mph 20.7 mph N/A   Scattered Clouds
5:15 AM 17.6 °F 3.7 °F 6.8 °F 63% 29.85 in 10.0 mi NW 13.8 mph 27.6 mph N/A   Clear
5:35 AM 17.6 °F 4.3 °F 5.0 °F 58% 29.87 in 10.0 mi NW 12.7 mph 20.7 mph N/A   Clear
5:55 AM 17.6 °F 3.7 °F 5.0 °F 58% 29.88 in 10.0 mi NNW 13.8 mph 19.6 mph N/A   Clear
6:15 AM 15.8 °F 3.4 °F 3.2 °F 58% 29.88 in 10.0 mi NW 10.4 mph 20.7 mph N/A   Clear
6:35 AM 15.8 °F 0.9 °F 3.2 °F 58% 29.90 in 10.0 mi NW 15.0 mph 21.9 mph N/A   Clear
6:55 AM 15.8 °F 2.1 °F 3.2 °F 58% 29.90 in 10.0 mi NW 12.7 mph 24.2 mph N/A   Clear
7:15 AM 15.8 °F 0.9 °F 3.2 °F 58% 29.92 in 10.0 mi NW 15.0 mph 20.7 mph N/A   Clear
7:35 AM 15.8 °F 4.2 °F 3.2 °F 58% 29.94 in 10.0 mi NW 9.2 mph 16.1 mph N/A   Clear
7:55 AM 15.8 °F 2.1 °F 1.4 °F 53% 29.95 in 10.0 mi NW 12.7 mph 17.3 mph N/A   Clear
8:15 AM 15.8 °F 1.4 °F 1.4 °F 53% 29.96 in 10.0 mi NW 13.8 mph 20.7 mph N/A   Clear
8:35 AM 15.8 °F 0.3 °F 1.4 °F 53% 29.97 in 10.0 mi NW 16.1 mph 23.0 mph N/A   Clear
8:55 AM 15.8 °F 2.7 °F 1.4 °F 53% 29.97 in 10.0 mi NW 11.5 mph 19.6 mph N/A   Clear
9:15 AM 15.8 °F 2.1 °F 1.4 °F 53% 29.99 in 10.0 mi NW 12.7 mph 19.6 mph N/A   Clear
9:35 AM 17.6 °F 5.0 °F 1.4 °F 49% 30.00 in 10.0 mi NW 11.5 mph 17.3 mph N/A   Clear
9:55 AM 17.6 °F 5.0 °F -0.4 °F 45% 30.01 in 10.0 mi NW 11.5 mph 23.0 mph N/A   Clear
10:15 AM 17.6 °F - -0.4 °F 45% 30.01 in - North - - N/A   Unknown
10:35 AM - - - N/A% 30.02 in - North - - N/A   Unknown
10:55 AM - - - N/A% 30.01 in - North - - N/A   Unknown
11:15 AM - - - N/A% 30.02 in - North - - N/A   Unknown
11:35 AM - - - N/A% 30.01 in - North - - N/A   Unknown
11:55 AM - - - N/A% 30.01 in - North - - N/A   Unknown
12:15 PM - - - N/A% 30.00 in - North - - N/A   Unknown
12:35 PM - - - N/A% 30.01 in - North - - N/A   Unknown
12:55 PM - - - N/A% 30.00 in - North - - N/A   Unknown
1:15 PM - - - N/A% 30.00 in - North - - N/A   Unknown
1:35 PM - - - N/A% 30.01 in - North - - N/A   Unknown
1:55 PM - - - N/A% 29.99 in - North - - N/A   Unknown
2:15 PM - - - N/A% 29.99 in - North - - N/A   Unknown
2:35 PM - - - N/A% 29.99 in - North - - N/A   Unknown
2:55 PM - - - N/A% 29.99 in - North - - N/A   Unknown
3:15 PM - - - N/A% 29.99 in - North - - N/A   Unknown
3:35 PM - - - N/A% 30.01 in - North - - N/A   Unknown